sat.trackr.live / text

‹ back to catalog

COSMOS 2586 (RODNIK-S *)

NORAD 63289 · 2025-054B

PAYLOAD ACTIVE UNKNOWN

§ Identity

Operator
Country
CIS
Launch date
2025-03-16
Launch site
PLMSC
Launch vehicle
Mass (kg)
RCS (m²)

External: N2YO · Heavens-Above · Gunter

§ Orbital elements

Epoch: 2026-05-25T04:08:52.503360Z

Period
115.86 min
Inclination
82.4913°
Eccentricity
0.0022287
Mean motion
12.42876470 rev/d
Perigee alt
1,476.9 km
Apogee alt
1,512.0 km
Semi-major
7,872.6 km
B*
3.2154e-4
RAAN
92.8700°
Arg perigee
73.4305°
Mean anomaly
286.9220°
Rev number
5,399

§ Raw data

COSMOS 2586 (RODNIK-S *)1 63289U 25054B   26145.17282990  .00000055  00000+0  32154-3 0  99972 63289  82.4913  92.8700 0022287  73.4305 286.9220 12.42876470 53992

JSON: /api/v1/satellites/63289 · /tle

For live sub-satellite position, see the globe view (requires WebGL).

§ Visibility from observer

Set your observer location to see the next 7 days of passes ≥ 10°. The values pass through the URL so the page stays shareable.

No JS? Fill the form by hand. The geolocation button needs JavaScript.